TimeCDT,TemperatureF,Dew PointF,Humidity,Sea Level PressureIn,VisibilityMPH,Wind Direction,Wind SpeedMPH,Gust SpeedMPH,PrecipitationIn,Events,Conditions,WindDirDegrees,DateUTC
12:53 AM,66.0,66.0,100,30.00,10.0,Calm,Calm,-,N/A,,Mostly Cloudy,0,2013-06-18 05:53:00
1:53 AM,64.9,64.9,100,29.98,10.0,Calm,Calm,-,N/A,,Clear,0,2013-06-18 06:53:00
2:33 AM,64.4,64.4,100,30.00,1.5,Calm,Calm,-,N/A,,Clear,0,2013-06-18 07:33:00
2:39 AM,64.4,64.4,100,30.00,0.5,Calm,Calm,-,N/A,Fog,Fog,0,2013-06-18 07:39:00
2:46 AM,64.4,64.4,100,30.01,1.0,Calm,Calm,-,N/A,,Clear,0,2013-06-18 07:46:00
2:51 AM,64.4,64.4,100,30.00,3.0,Calm,Calm,-,N/A,,Clear,0,2013-06-18 07:51:00
2:53 AM,64.9,64.9,100,29.98,7.0,Calm,Calm,-,N/A,,Clear,0,2013-06-18 07:53:00
3:13 AM,64.4,64.4,100,30.00,5.0,Calm,Calm,-,N/A,,Partly Cloudy,0,2013-06-18 08:13:00
3:35 AM,64.4,64.4,100,30.00,1.8,Calm,Calm,-,N/A,,Partly Cloudy,0,2013-06-18 08:35:00
3:53 AM,63.0,63.0,100,29.97,1.8,Calm,Calm,-,N/A,,Clear,0,2013-06-18 08:53:00
3:56 AM,64.4,64.4,100,30.00,4.0,Calm,Calm,-,N/A,,Clear,0,2013-06-18 08:56:00
4:08 AM,62.6,62.6,100,30.00,1.8,Calm,Calm,-,N/A,,Scattered Clouds,0,2013-06-18 09:08:00
4:20 AM,64.4,64.4,100,30.01,3.0,Calm,Calm,-,N/A,,Mostly Cloudy,0,2013-06-18 09:20:00
4:53 AM,64.9,64.9,100,29.98,4.0,Calm,Calm,-,N/A,,Mostly Cloudy,0,2013-06-18 09:53:00
4:57 AM,64.4,64.4,100,30.01,1.8,Calm,Calm,-,N/A,,Mostly Cloudy,0,2013-06-18 09:57:00
5:04 AM,64.4,64.4,100,30.01,3.0,Calm,Calm,-,N/A,,Mostly Cloudy,0,2013-06-18 10:04:00
5:53 AM,64.0,64.0,100,29.98,10.0,Calm,Calm,-,N/A,,Clear,0,2013-06-18 10:53:00
6:53 AM,66.9,66.0,97,29.98,10.0,Calm,Calm,-,N/A,,Clear,0,2013-06-18 11:53:00
7:53 AM,70.0,68.0,93,30.00,10.0,Calm,Calm,-,N/A,,Clear,0,2013-06-18 12:53:00
8:53 AM,72.0,69.1,91,30.01,10.0,Variable,4.6,-,N/A,,Clear,0,2013-06-18 13:53:00
9:53 AM,75.9,69.1,79,30.02,10.0,NE,3.5,-,N/A,,Clear,50,2013-06-18 14:53:00
10:53 AM,80.1,68.0,67,30.02,10.0,Variable,4.6,-,N/A,,Clear,0,2013-06-18 15:53:00
11:53 AM,81.0,68.0,65,30.02,10.0,Calm,Calm,-,N/A,,Clear,0,2013-06-18 16:53:00
12:53 PM,82.9,66.9,58,30.01,10.0,Calm,Calm,-,N/A,,Clear,0,2013-06-18 17:53:00
1:53 PM,84.9,68.0,57,30.00,10.0,East,5.8,-,N/A,,Clear,100,2013-06-18 18:53:00
2:53 PM,86.0,66.0,51,29.99,10.0,East,8.1,-,N/A,,Clear,100,2013-06-18 19:53:00
3:53 PM,87.1,62.1,43,29.96,10.0,East,9.2,-,N/A,,Clear,80,2013-06-18 20:53:00
4:53 PM,87.1,61.0,41,29.94,10.0,SE,8.1,-,N/A,,Clear,130,2013-06-18 21:53:00
5:53 PM,86.0,63.0,46,29.92,10.0,SE,5.8,-,N/A,,Clear,130,2013-06-18 22:53:00
6:53 PM,84.9,62.1,46,29.94,10.0,SE,4.6,-,N/A,,Clear,140,2013-06-18 23:53:00
7:53 PM,82.0,64.0,54,29.95,10.0,East,3.5,-,N/A,,Clear,90,2013-06-19 00:53:00
8:53 PM,72.0,68.0,87,29.96,10.0,Calm,Calm,-,N/A,,Clear,0,2013-06-19 01:53:00
9:53 PM,69.1,68.0,96,29.98,10.0,Calm,Calm,-,N/A,,Clear,0,2013-06-19 02:53:00
10:53 PM,69.1,66.9,93,29.97,10.0,Calm,Calm,-,N/A,,Clear,0,2013-06-19 03:53:00
11:53 PM,68.0,66.0,93,29.96,10.0,Calm,Calm,-,N/A,,Clear,0,2013-06-19 04:53:00